El Paso, TX

12:16 PM MDT on May 22, 2018 (GMT -0600)
El Paso International

Weather History for KELP - August, 2014

Change the Weather History Date:

Wednesday, August 20, 2014

  Actual Average Record
Temperature  
Mean Temperature 81 °F 81 °F  
Max Temperature 92 °F 92 °F 103 °F (2007)
Min Temperature 69 °F 70 °F 58 °F (1976)
Degree Days  
Heating Degree Days 0 0  
Month to date heating degree days 0 0  
Since 1 June heating degree days 0 0  
Since 1 July heating degree days 0 0  
Cooling Degree Days 16 16  
Month to date cooling degree days 308 330  
Year to date cooling degree days 2050 1761  
Since 1 June cooling degree days 1623 1384  
Growing Degree Days 30 (Base 50)    
Moisture  
Dew Point 53 °F    
Average Humidity 45    
Maximum Humidity 66    
Minimum Humidity 23    
Precipitation  
Precipitation 0.00 in 0.06 in 0.72 in (1978)
Month to date precipitation 1.02 1.41  
Year to date precipitation 2.36 5.72  
Snow  
Snow 0.00 in - - ()
Month to date snowfall 0.0  
Since 1 June snowfall 0.0  
Since 1 July snowfall 0.0  
Snow Depth 0.00 in    
Sea Level Pressure  
Sea Level Pressure 29.78 in    
Wind  
Wind Speed 11 mph (WSW)    
Max Wind Speed 22 mph    
Max Gust Speed 26 mph    
Visibility 10 miles    
Events      
T = Trace of Precipitation, MM = Missing Value Source: NWS Daily Summary

Daily Weather History Graph

Daily Weather History Graph

Search for Another Location

Airport or City:

Astronomy

Aug. 20, 2014 Rise Set
Actual Time 6:33 AM MDT 7:43 PM MDT
Civil Twilight 6:08 AM MDT 8:08 PM MDT
Nautical Twilight 5:37 AM MDT 8:39 PM MDT
Astronomical Twilight 5:06 AM MDT 9:10 PM MDT
Moon 2:22 AM MDT (8/20) 4:24 PM MDT (8/20)
Length of Visible Light 14h 00m
Length of Day
13h 10m
Waning Crescent, 20% of the Moon is Illuminated
Aug 20
Waning Crescent
Aug 25
New
Sep 2
First Quarter
Sep 8
Full
Sep 15
Last Quarter

Hourly Weather History & Observations

Time (MDT) Temp. Heat Index Dew Point Humidity Pressure Visibility Wind Dir Wind Speed Gust Speed Precip Events Conditions
12:51 AM 72.0 °F - 59.0 °F 64% 29.73 in 10.0 mi WSW 17.3 mph - N/A   Scattered Clouds
1:51 AM 71.1 °F - 57.9 °F 63% 29.73 in 10.0 mi SW 13.8 mph - N/A   Partly Cloudy
2:51 AM 71.1 °F - 57.0 °F 61% 29.74 in 10.0 mi WSW 11.5 mph - N/A   Partly Cloudy
3:51 AM 72.0 °F - 55.0 °F 55% 29.75 in 10.0 mi WSW 11.5 mph - N/A   Partly Cloudy
4:51 AM 72.0 °F - 55.9 °F 57% 29.75 in 10.0 mi West 13.8 mph - N/A   Scattered Clouds
5:51 AM 70.0 °F - 57.0 °F 63% 29.78 in 10.0 mi WSW 13.8 mph - N/A   Partly Cloudy
6:51 AM 69.1 °F - 57.9 °F 68% 29.81 in 10.0 mi SSW 12.7 mph - N/A   Scattered Clouds
7:51 AM 71.1 °F - 59.0 °F 66% 29.81 in 10.0 mi SW 15.0 mph - N/A   Scattered Clouds
8:51 AM 73.0 °F - 57.9 °F 59% 29.82 in 10.0 mi SSW 9.2 mph - N/A   Scattered Clouds
9:51 AM 75.0 °F - 57.9 °F 55% 29.83 in 10.0 mi WSW 12.7 mph - N/A   Mostly Cloudy
10:51 AM 79.0 °F - 57.0 °F 47% 29.82 in 10.0 mi West 10.4 mph - N/A   Scattered Clouds
11:51 AM 82.0 °F 81.7 °F 57.0 °F 42% 29.81 in 10.0 mi NW 6.9 mph 17.3 mph N/A   Scattered Clouds
12:51 PM 86.0 °F 84.5 °F 55.0 °F 35% 29.80 in 10.0 mi NNE 8.1 mph - N/A   Partly Cloudy
1:51 PM 87.1 °F 85.1 °F 54.0 °F 32% 29.78 in 10.0 mi Variable 3.5 mph - N/A   Scattered Clouds
2:51 PM 89.6 °F - 51.8 °F 27% 29.97 in 10.0 mi Variable 6.9 mph 17.3 mph N/A   Scattered Clouds
3:51 PM 89.6 °F 87.3 °F 53.6 °F 29% 29.95 in 10.0 mi West 9.2 mph - N/A   Scattered Clouds
4:51 PM 91.0 °F - 50.0 °F 24% 29.70 in 10.0 mi Variable 6.9 mph - N/A   Scattered Clouds
5:51 PM 91.0 °F - 50.0 °F 24% 29.70 in 10.0 mi West 10.4 mph 24.2 mph N/A   Scattered Clouds
6:51 PM 90.0 °F - 48.0 °F 24% 29.70 in 10.0 mi WSW 8.1 mph - N/A   Partly Cloudy
7:51 PM 88.0 °F - 46.9 °F 24% 29.72 in 10.0 mi West 9.2 mph - N/A   Partly Cloudy
8:51 PM 86.0 °F - 44.6 °F 23% 29.97 in 10.0 mi West 12.7 mph - N/A   Partly Cloudy
9:51 PM 84.9 °F - 44.1 °F 24% 29.76 in 10.0 mi West 13.8 mph - N/A   Partly Cloudy
10:51 PM 84.0 °F - 45.0 °F 25% 29.77 in 10.0 mi WSW 13.8 mph 24.2 mph N/A   Clear
11:51 PM 82.0 °F - 46.9 °F 29% 29.78 in 10.0 mi West 16.1 mph 21.9 mph N/A   Clear